Regional Weather Roundup
Issued by NWS

Home | Current Version | Previous Version | Graphics & Text | Print | Product List | Glossary On
Versions: 1 2 3 4 5 6 7 8 9 10 11 12 13 14 15 16 17 18 19 20 21 22 23 24 25 26 27 28 29 30 31 32 33 34 35 36 37 38 39 40 41 42 43 44 45 46 47 48 49 50
000
ASUS43 KMKX 210300
RWRWI

WISCONSIN REGIONAL WEATHER ROUNDUP
NATIONAL WEATHER SERVICE MILWAUKEE/SULLIVAN WI
1000 PM CDT SAT SEP 20 2014

NOTE: "FAIR" INDICATES FEW OR NO CLOUDS BELOW 12,000 FEET WITH NO
SIGNIFICANT WEATHER AND/OR OBSTRUCTIONS TO VISIBILITY.

WIZ001-002-006>008-014>016-023>028-210400-
NORTHWEST WISCONSIN

CITY           SKY/WX    TMP DP  RH WIND       PRES   REMARKS
SUPERIOR ARPT  RAIN      55  54  98 CALM      29.71S
ASHLAND        LGT RAIN  54  52  93 SW7       29.71S
HAYWARD        RAIN      55  54  96 VRB6      29.73F FOG
SIREN          MOCLDY    56  54  93 W7        29.76S
RICE LAKE      CLOUDY    57  53  87 W9        29.78S
LADYSMITH      MOCLDY    55  53  94 NW5       29.76S
EAU CLAIRE     NOT AVBL
MENOMONIE      PTCLDY    58  55  87 W9        29.80R
NEW RICHMOND   CLEAR     56  53  91 W10       29.82R
OSCEOLA        CLEAR     57  54  90 W8        29.83S
$$

WIZ003>005-009-010-017-018-210400-
NORTH CENTRAL WISCONSIN

CITY           SKY/WX    TMP DP  RH WIND       PRES   REMARKS
WOODRUFF       CLOUDY    57  53  88 CALM      29.71F
RHINELANDER    CLOUDY    56  52  86 W5        29.71F
EAGLE RIVER    CLOUDY    55  53  94 CALM      29.71S
LAND O LAKES   CLOUDY    51  50  98 CALM      29.72S
PHILLIPS       HVY RAIN  53  52  97 NW3       29.73F
TOMAHAWK       LGT RAIN  56  52  87 W8        29.73R
MEDFORD        RAIN      55  54  95 NW5       29.74F
MERRILL        LGT RAIN  60  56  86 CALM      29.70F
$$

WIZ029-030-035-036-043>047-210400-
CENTRAL WISCONSIN

CITY           SKY/WX    TMP DP  RH WIND       PRES   REMARKS
WAUSAU         HVY RAIN  58  54  86 W23G37    29.73R FOG
MOSINEE        TSTM      63  59  88 W25G41    29.75R
MARSHFIELD     CLOUDY    57  54  89 NW8       29.73F
STEVENS POINT  LGT RAIN  63  56  79 W6        29.72S
WAUPACA        CLOUDY    64  59  81 W3        29.70F
WAUTOMA        NOT AVBL
WISC RAPIDS    RAIN      58  56  93 N3        29.74R FOG
CAMP DOUGLAS   CLOUDY    59  59 100 NW3       29.73F
$$

WIZ011>013-019>022-031-037>040-048>050-210400-
NORTHEAST WISCONSIN

CITY           SKY/WX    TMP DP  RH WIND       PRES   REMARKS
ANTIGO         CLOUDY    61  54  77 NW6       29.71F
STURGEON BAY   CLOUDY    64  61  88 CALM      29.66F
GREEN BAY      CLOUDY    65  58  78 SW5       29.68F
MANITOWOC      NOT AVBL
APPLETON       MOCLDY    63  55  77 SW6       29.70F
CLINTONVILLE   CLOUDY    63  55  77 W3        29.67F
OSHKOSH        MOCLDY    66  60  81 SW6       29.70F
$$

WIZ032>034-041-042-053>061-210400-
SOUTHWEST WISCONSIN

CITY           SKY/WX    TMP DP  RH WIND       PRES   REMARKS
LA CROSSE      CLOUDY    62  59  90 W9        29.79R
SPARTA         NOT AVBL
VIROQUA        MOCLDY    59  59 100 CALM      29.77F
BOSCOBEL       LGT RAIN  64  61  90 CALM      29.75F
PRAIRIE DU CHI LGT RAIN  62  60  94 NE3       29.77F
PLATTEVILLE    MOCLDY    65  61  87 W14G24    29.81R
$$

WIZ056-057-062-063-064-067-068-210400-
SOUTH CENTRAL WISCONSIN

CITY           SKY/WX    TMP DP  RH WIND       PRES   REMARKS
BARABOO/DELLS  LGT RAIN  66  57  72 W23G29    29.77R
LONE ROCK      LGT RAIN  68  60  75 NW20G29   29.80R
WATERTOWN      PTCLDY    62  61  97 CALM      29.72F
MADISON        CLOUDY    67  62  84 CALM      29.72F
MIDDLETON      MOCLDY    63  61  95 CALM      29.73F
MONROE         PTCLDY    64  63  94 S9        29.75F
JANESVILLE     CLEAR     66  63  88 SW7       29.74F
$$

WIZ051-052-058>065-066-070>072-210400-
SOUTHEAST WISCONSIN

CITY           SKY/WX    TMP DP  RH WIND       PRES   REMARKS
MILWAUKEE      MOCLDY    68  64  87 SW8       29.73F
WAUKESHA       PTCLDY    64  61  88 S6        29.75F
MILWAUKEE/TIMM PTCLDY    66  61  82 SW7       29.74F
RACINE         PTCLDY    68  63  84 SW8       29.74F
BURLINGTON     PTCLDY    63  62  96 SW6       29.74F
KENOSHA        CLEAR     66  64  93 SW7       29.74F
FOND DU LAC    MOCLDY    64  61  90 SW5       29.71F
SHEBOYGAN      PTCLDY    63  60  90 SW7       29.70F
WEST BEND      MOCLDY    63  57  82 CALM      29.73S
JUNEAU         PTCLDY    63  60  91 SW3       29.73F
$$

LSZ147-162-210400-
LAKE SUPERIOR

STATION/POSITION TIME  TEMP    WIND        PRES    WAVE
                       AIR SEA DIR/SP/G            HT/PER
                 (UTC) (F)     (DEG/KT/KT) (MB)    (FT/S)
W MID LAKE BUOY  0150   52 46   70/  4/  4 1005.5F   1/ 3
DEVILS ISLAND    0200   55      50/  7/  7 1005.4R
PORT WING        0200   56     270/  8/ 12 1006.1R
SAXON HARBOR     0200   56        CALM     1005.8R
$$

LMZ867-665-643>646-210400-
LAKE MICHIGAN

STATION/POSITION TIME  TEMP    WIND        PRES    WAVE
                       AIR SEA DIR/SP/G            HT/PER
                 (UTC) (F)     (DEG/KT/KT) (MB)    (FT/S)
N MID LAKE BUOY  0150   61 58   40/ 10/ 12 1005.2R   4/ 7
NORTHPORT PIER   0200   63      60/  9/ 12 1005.1R
SISTER BAY       0242           80/  9/ 19   N/A
KEWAUNEE LAKESHO 0200   67     270/  5/  8 1004.1F
SHEBOYGAN LAKESH 0200   68 53  230/ 10/ 11 1005.9F
PORT WASHINGTON  0240   67     250/  3/  5 1006.8F
ATWATER BUOY     0200   64     210/  8/ 10 1008.0F
MILWAUKEE LAKESH 0200   70     220/  9/ 10   N/A
S MID LAKE BUOY  0150   67 63  210/ 12/ 14 1007.7F
KENOSHA   LAKESH 0200   70     210/  8/ 14 1007.5F
$$

TC  - TEMPERATURE IN CELSIUS
VSB - VISIBILITY IN STATUTE MILES
WCI - WIND CHILL INDEX
HX  - HEAT INDEX




USA.gov is the U.S. government's official web portal to all federal, state and local government web resources and services.